time_stamp(utc),avg(mph),gust(mph),direction(deg),12m_air_temp(f),sonic_u(cm/s),sonic_v(cm/s),sonic_w(cm/s),pressure,2m_air_temp(f),pyranometer(W/m^2)
"2021-02-11 00:02:39+00",2.3,3.3,,34,6,90,1,1026.62,33.7,0
"2021-02-11 00:07:39+00",1.5,1.5,,34,34,42,-1,1026.57,33.7,0
"2021-02-11 00:12:39+00",2.4,2.4,,34,80,56,1,1026.39,33.7,0
"2021-02-11 00:17:39+00",2.8,2.8,,34,98,55,-1,1026.32,33.7,0
"2021-02-11 00:22:39+00",2.7,2.7,,34.1,93,59,0,1026.29,33.7,0
"2021-02-11 00:27:39+00",2.7,3.7,,34.1,108,13,27,1026.31,33.7,0
"2021-02-11 00:32:39+00",3.6,4.6,,34.1,128,82,8,1026.3,33.7,0
"2021-02-11 00:37:39+00",3.1,4.1,,34,112,63,5,1025.95,33.7,0
"2021-02-11 00:42:39+00",3.3,4.3,,34,136,24,8,1025.89,33.7,0
"2021-02-11 00:47:39+00",2.7,2.7,,34.1,109,7,10,1025.93,33.8,0
"2021-02-11 00:52:39+00",2.2,3.2,,34.1,43,-67,-8,1026.23,33.8,0
"2021-02-11 00:57:39+00",2.6,3.6,,34.1,38,-93,-10,1026.15,33.8,0
"2021-02-11 01:02:39+00",4.0,5.0,,34.1,100,-135,-6,1025.95,33.9,0
"2021-02-11 01:07:39+00",2.5,2.5,,34.1,48,-71,19,1026.07,33.9,0
"2021-02-11 01:12:39+00",2.6,2.6,,34.1,90,-52,-2,1025.72,33.9,0
"2021-02-11 01:17:39+00",3.1,4.1,,34.1,66,-105,1,1025.6,33.9,0
"2021-02-11 01:22:39+00",4.1,5.1,,34,131,-100,6,1025.69,33.9,0
"2021-02-11 01:27:39+00",3.2,4.2,,34,106,-74,-1,1025.71,33.9,0
"2021-02-11 01:32:39+00",3.2,3.2,,34,106,-77,-3,1025.64,33.9,0
"2021-02-11 01:37:39+00",2.6,3.6,,34,88,-58,7,1025.76,34,0
"2021-02-11 01:42:39+00",2.9,3.9,,34,119,-21,0,1025.72,33.9,0
"2021-02-11 01:47:39+00",5.0,6.0,,34,218,-31,12,1025.75,33.9,0
"2021-02-11 01:52:39+00",4.2,5.2,,34,179,-51,17,1025.69,33.9,0
"2021-02-11 01:57:39+00",4.7,5.7,,34.1,194,-60,9,1025.61,33.9,0
"2021-02-11 02:02:39+00",5.6,6.6,,34,212,-108,4,1025.54,33.9,0
"2021-02-11 02:07:39+00",3.7,4.7,,34.1,116,-98,3,1025.61,33.9,0
"2021-02-11 02:12:39+00",2.7,3.7,,34.1,82,-65,1,1025.79,34,0
"2021-02-11 02:17:39+00",3.8,4.8,,34.1,65,-141,0,1025.76,33.9,0
"2021-02-11 02:22:39+00",3.6,3.6,,34.1,72,-126,0,1025.58,33.9,0
"2021-02-11 02:27:39+00",4.2,5.2,,34.2,107,-137,-6,1025.55,33.9,0
"2021-02-11 02:32:39+00",4.2,5.2,,34.2,135,-115,-6,1025.54,33.9,0
"2021-02-11 02:37:39+00",4.8,5.8,,34.1,167,-119,0,1025.53,33.9,0
"2021-02-11 02:42:39+00",4.5,5.5,,34.1,115,-140,3,1025.43,33.9,0
"2021-02-11 02:47:39+00",4.3,4.3,,34.1,145,-113,2,1025.48,33.9,0
"2021-02-11 02:52:39+00",2.9,2.9,,34.1,93,-63,8,1025.41,33.9,0
"2021-02-11 02:57:39+00",4.9,5.9,,34.1,137,-161,6,1025.31,33.9,0
"2021-02-11 03:02:39+00",4.2,5.2,,34.2,70,-149,3,1025.46,33.9,0
"2021-02-11 03:07:39+00",5.7,6.7,,34.2,162,-182,2,1025.23,33.9,0
"2021-02-11 03:12:39+00",4.5,5.5,,34.1,126,-130,11,1025.36,33.9,0
"2021-02-11 03:17:39+00",4.7,5.7,,34.1,137,-148,4,1025.36,33.9,0
"2021-02-11 03:22:39+00",5.2,6.2,,34.2,157,-165,-5,1025.21,33.9,0
"2021-02-11 03:27:39+00",4.9,5.9,,34.1,92,-174,-9,1025.21,33.9,0
"2021-02-11 03:32:39+00",4.8,5.8,,34.1,108,-169,-1,1025.17,33.9,0
"2021-02-11 03:37:39+00",4.9,5.9,,34.2,114,-165,-14,1025.12,33.9,0
"2021-02-11 03:42:39+00",3.2,4.2,,34.2,28,-119,5,1025.35,33.9,0
"2021-02-11 03:47:39+00",3.0,4.0,,34.2,9,-116,-1,1025.57,33.8,0
"2021-02-11 03:52:39+00",4.0,5.0,,34.2,-61,-160,4,1025.78,33.9,0
"2021-02-11 03:57:39+00",5.0,6.0,,34.2,58,-201,-7,1025.37,33.8,0
"2021-02-11 04:02:39+00",4.1,6.1,,34.2,41,-153,0,1025.63,33.8,0
"2021-02-11 04:07:39+00",4.0,5.0,,34.2,-35,-157,-6,1025.62,33.9,0
"2021-02-11 04:12:39+00",4.2,5.2,,34.2,-44,-167,10,1025.61,33.8,0
"2021-02-11 04:17:39+00",5.2,6.2,,34.2,-63,-208,2,1025.47,33.8,0
"2021-02-11 04:22:39+00",5.9,6.9,,34,-28,-235,-9,1025.35,33.8,0
"2021-02-11 04:27:39+00",4.2,5.2,,33.9,-6,-175,-7,1025.34,33.7,0
"2021-02-11 04:32:39+00",4.1,5.1,,33.9,12,-168,-11,1025.19,33.7,0
"2021-02-11 04:37:39+00",3.4,4.4,,33.9,-26,-130,-4,1025.2,33.7,0
"2021-02-11 04:42:39+00",3.3,4.3,,33.9,16,-134,-5,1025.19,33.7,0
"2021-02-11 04:47:39+00",3.3,4.3,,33.9,-9,-135,-9,1025.2,33.7,0
"2021-02-11 04:52:39+00",5.3,6.3,,33.8,58,-218,-12,1025.17,33.6,0
"2021-02-11 04:57:39+00",2.2,3.2,,33.7,-19,-74,-5,1025.43,33.5,0
"2021-02-11 05:02:39+00",3.1,4.1,,33.6,4,-118,-2,1025.32,33.5,0
"2021-02-11 05:07:39+00",3.0,5.0,,33.5,75,-86,-25,1025.3,33.4,0
"2021-02-11 05:12:39+00",5.9,6.9,,32.8,138,-208,-15,1025.16,32.9,0
"2021-02-11 05:17:39+00",1.4,2.4,,32.4,45,-21,2,1025.18,32.5,0
"2021-02-11 05:22:39+00",3.5,4.5,,31.9,14,-143,0,1025.13,32,0
"2021-02-11 05:27:39+00",2.4,3.4,,31.4,13,-85,-1,1025.1,31.6,0
"2021-02-11 05:32:39+00",3.4,3.4,,31.1,6,-139,-6,1025.19,31.3,0
"2021-02-11 05:37:39+00",3.9,3.9,,30.9,91,-135,-4,1024.91,31.1,0
"2021-02-11 05:42:39+00",2.3,3.3,,30.8,75,-54,11,1024.9,31,0
"2021-02-11 05:47:39+00",2.8,3.8,,30.6,106,-41,2,1025.01,31,0
"2021-02-11 05:52:39+00",1.9,2.9,,30.5,72,11,4,1025.11,30.9,0
"2021-02-11 05:57:39+00",2.6,3.6,,30.2,105,35,4,1024.9,30.8,0
"2021-02-11 06:02:39+00",4.4,5.4,,30,181,75,10,1024.91,30.7,0
"2021-02-11 06:07:39+00",4.7,5.7,,29.9,209,32,19,1025,30.6,0
"2021-02-11 06:12:39+00",4.7,4.7,,29.7,203,33,19,1024.85,30.5,0
"2021-02-11 06:17:39+00",5.3,6.3,,29.6,235,22,11,1024.82,30.4,0
"2021-02-11 06:22:39+00",4.0,5.0,,29.6,165,49,9,1024.97,30.3,0
"2021-02-11 06:27:39+00",3.8,4.8,,29.7,160,65,10,1024.77,30.2,0
"2021-02-11 06:32:39+00",4.6,5.6,,29.7,203,28,14,1024.58,30.2,0
"2021-02-11 06:37:39+00",4.7,4.7,,29.7,214,19,10,1024.38,30.2,0
"2021-02-11 06:42:39+00",4.5,5.5,,29.8,197,-4,13,1024.38,30.2,0
"2021-02-11 06:47:39+00",7.2,8.2,,29.9,332,18,26,1024.32,30.3,0
"2021-02-11 06:52:39+00",7.4,8.4,,29.8,328,-28,14,1024.3,30.2,0
"2021-02-11 06:57:39+00",6.8,7.8,,29.9,309,0,16,1024.19,30.3,0
"2021-02-11 07:02:39+00",6.8,7.8,,30,304,20,25,1024.03,30.3,0
"2021-02-11 07:07:39+00",9.8,10.8,,30.1,441,-27,15,1023.9,30.4,0
"2021-02-11 07:12:39+00",8.9,9.9,,30.1,406,50,15,1023.89,30.4,0
"2021-02-11 07:17:39+00",8.0,9.0,,30,365,8,26,1023.92,30.4,0
"2021-02-11 07:22:39+00",10.5,12.5,,30,479,68,30,1023.79,30.3,0
"2021-02-11 07:27:39+00",8.3,10.3,,29.8,359,107,24,1023.71,30.3,0
"2021-02-11 07:32:39+00",10.7,11.7,,30.1,475,113,35,1023.61,30.3,0
"2021-02-11 07:37:39+00",7.9,8.9,,30.2,336,142,29,1023.48,30.4,0
"2021-02-11 07:42:39+00",9.6,11.6,,30.1,413,164,26,1023.6,30.4,0
"2021-02-11 07:47:39+00",9.7,11.7,,29.9,371,221,32,1023.55,30.2,0
"2021-02-11 07:52:39+00",11.2,13.2,,29.7,392,308,19,1023.58,30.1,0
"2021-02-11 07:57:39+00",9.1,11.1,,29.8,358,196,19,1023.43,30.1,0
"2021-02-11 08:02:39+00",10.5,11.5,,29.6,418,235,14,1023.27,30,0
"2021-02-11 08:07:39+00",8.9,9.9,,29.7,348,193,23,1023.28,29.9,0
"2021-02-11 08:12:39+00",10.9,12.9,,29.8,449,236,10,1023.19,29.9,0
"2021-02-11 08:17:39+00",9.9,11.9,,29.9,362,265,31,1022.97,30.1,0
"2021-02-11 08:22:39+00",12.4,14.4,,29.8,468,292,28,1023.08,30.1,0
"2021-02-11 08:27:39+00",11.3,13.3,,29.7,444,247,21,1023,30,0
"2021-02-11 08:32:39+00",13.8,15.8,,30,512,355,11,1023.02,30.1,0
"2021-02-11 08:37:39+00",13.0,16.0,,30.1,442,384,19,1023.08,30.2,0
"2021-02-11 08:42:39+00",13.4,14.4,,29.7,443,406,18,1022.99,30.1,0
"2021-02-11 08:47:39+00",11.6,13.6,,29.7,432,310,33,1022.92,30,0
"2021-02-11 08:52:39+00",11.0,13.0,,29.8,393,309,22,1022.81,29.9,0
"2021-02-11 08:57:39+00",12.2,14.2,,30.1,435,341,31,1022.7,30.1,0
"2021-02-11 09:02:39+00",13.5,15.5,,30.1,405,429,25,1022.82,30.2,0
"2021-02-11 09:07:39+00",6.0,7.0,,30,159,194,6,1022.92,30.2,0
"2021-02-11 09:12:39+00",12.9,13.9,,30,465,358,28,1022.75,30.2,0
"2021-02-11 09:17:39+00",14.8,15.8,,29.9,510,428,32,1022.54,30.1,0
"2021-02-11 09:22:39+00",14.1,16.1,,29.9,491,416,27,1022.58,30.1,0
"2021-02-11 09:27:39+00",14.4,16.4,,29.9,473,436,27,1022.65,30.1,0
"2021-02-11 09:32:39+00",13.8,17.8,,30.1,422,415,28,1022.8,30.2,0
"2021-02-11 09:37:39+00",16.9,19.9,,30,546,539,29,1022.98,30.2,0
"2021-02-11 09:42:39+00",14.7,16.7,,29.7,346,503,2,1023.07,29.9,0
"2021-02-11 09:47:39+00",16.6,18.6,,30,471,513,4,1023,30.1,0
"2021-02-11 09:52:39+00",16.9,18.9,,30,509,549,31,1022.89,30.2,0
"2021-02-11 09:57:39+00",15.3,18.3,,30.1,553,422,22,1022.79,30.2,0
"2021-02-11 10:02:39+00",16.7,18.7,,29.9,545,506,33,1023.01,30,0
"2021-02-11 10:07:39+00",15.1,18.1,,29.8,537,421,37,1022.96,29.9,0
"2021-02-11 10:12:39+00",14.2,17.2,,29.9,504,376,37,1022.89,30,0
"2021-02-11 10:17:39+00",13.9,15.9,,30.1,415,431,16,1022.97,30.2,0
"2021-02-11 10:22:39+00",16.7,19.7,,29.8,481,537,7,1023,30,0
"2021-02-11 10:27:39+00",14.7,16.7,,29.9,439,451,27,1022.99,30.1,0
"2021-02-11 10:32:39+00",14.7,16.7,,29.9,479,450,16,1022.88,30.1,0
"2021-02-11 10:37:39+00",15.6,17.6,,29.9,493,483,27,1022.74,30.1,0
"2021-02-11 10:42:39+00",14.0,16.0,,30,498,385,27,1022.67,30.1,0
"2021-02-11 10:47:39+00",14.0,15.0,,29.9,544,315,22,1022.76,30.1,0
"2021-02-11 10:52:39+00",12.4,14.4,,30.2,479,303,33,1022.71,30.1,0
"2021-02-11 10:57:39+00",13.9,15.9,,30.4,503,358,59,1022.77,30.3,0
"2021-02-11 11:02:39+00",13.4,14.4,,30.4,514,318,13,1022.87,30.4,0
"2021-02-11 11:07:39+00",16.6,18.6,,30.4,532,505,22,1022.8,30.4,0
"2021-02-11 11:12:39+00",15.3,16.3,,30.2,488,462,19,1022.61,30.4,0
"2021-02-11 11:17:39+00",13.0,14.0,,30.2,411,395,46,1022.76,30.4,0
"2021-02-11 11:22:39+00",16.6,18.6,,30.5,570,486,30,1022.78,30.5,0
"2021-02-11 11:27:39+00",15.7,17.7,,30.6,603,389,19,1022.96,30.6,0
"2021-02-11 11:32:39+00",14.9,17.9,,30.6,574,343,32,1022.79,30.6,0
"2021-02-11 11:37:39+00",16.7,20.7,,30.4,631,402,41,1022.78,30.6,0
"2021-02-11 11:42:39+00",16.3,18.3,,30.6,616,419,18,1022.94,30.6,0
"2021-02-11 11:47:39+00",14.3,18.3,,30.9,526,383,20,1022.76,30.8,0
"2021-02-11 11:52:39+00",16.3,18.3,,31,467,511,25,1022.83,30.9,0
"2021-02-11 11:57:39+00",15.3,16.3,,31,400,493,-11,1023.1,31,0
"2021-02-11 12:02:39+00",16.2,18.2,,31,524,504,18,1023.11,31.1,0
"2021-02-11 12:07:39+00",14.4,15.4,,31.1,406,468,12,1023.3,31.1,0
"2021-02-11 12:12:39+00",17.6,19.6,,31.2,468,570,-2,1023.32,31.2,0
"2021-02-11 12:17:39+00",18.1,20.1,,31.1,509,595,14,1023.24,31.2,0
"2021-02-11 12:22:39+00",17.5,19.5,,31,480,566,-4,1023.05,31.2,0
"2021-02-11 12:27:39+00",18.5,21.5,,31.1,543,586,11,1023.23,31.2,0
"2021-02-11 12:32:39+00",18.5,21.5,,31,450,621,5,1023.37,31.2,0
"2021-02-11 12:37:39+00",16.6,20.6,,31,498,529,21,1023.38,31.2,0
"2021-02-11 12:42:39+00",16.8,19.8,,31,486,542,29,1023.27,31.2,0
"2021-02-11 12:47:39+00",18.4,21.4,,30.8,483,629,-1,1023.49,31.1,0
"2021-02-11 12:52:39+00",18.2,21.2,,30.7,559,586,36,1023.28,31.1,0
"2021-02-11 12:57:39+00",18.6,20.6,,30.8,547,608,25,1023.29,31.1,0
"2021-02-11 13:02:39+00",18.8,20.8,,30.8,559,617,6,1023.41,31.1,0
"2021-02-11 13:07:39+00",19.2,21.2,,30.8,579,614,9,1023.32,31.2,0
"2021-02-11 13:12:39+00",18.5,20.5,,30.7,469,623,-6,1023.47,31.1,0
"2021-02-11 13:17:39+00",17.9,20.9,,30.8,542,572,21,1023.42,31.2,0
"2021-02-11 13:22:39+00",18.9,20.9,,31,609,599,27,1023.39,31.3,0
"2021-02-11 13:27:39+00",17.2,20.2,,31.2,609,495,47,1023.35,31.4,0
"2021-02-11 13:32:39+00",19.0,20.0,,31.2,673,548,38,1023.34,31.5,0
"2021-02-11 13:37:39+00",19.3,21.3,,31.3,670,572,34,1023.27,31.6,0
"2021-02-11 13:42:39+00",14.3,16.3,,31.4,441,456,33,1023.32,31.7,0
"2021-02-11 13:47:39+00",18.5,19.5,,31.5,571,585,13,1023.31,31.7,0
"2021-02-11 13:52:39+00",17.3,20.3,,31.5,486,583,-6,1023.42,31.7,0
"2021-02-11 13:57:39+00",19.7,21.7,,31.5,568,644,7,1023.33,31.7,0
"2021-02-11 14:02:39+00",19.7,21.7,,31.3,524,656,-11,1023.24,31.7,0
"2021-02-11 14:07:39+00",17.6,18.6,,31.2,454,608,-4,1023.33,31.7,0
"2021-02-11 14:12:39+00",18.7,20.7,,31.2,482,629,13,1023.36,31.6,0
"2021-02-11 14:17:39+00",20.4,21.4,,31.2,510,698,-5,1023.37,31.6,0
"2021-02-11 14:22:39+00",16.6,18.6,,31.3,427,563,20,1023.16,31.7,0
"2021-02-11 14:27:39+00",19.0,21.0,,31.3,473,654,-4,1023.33,31.7,0
"2021-02-11 14:32:39+00",18.9,20.9,,31.3,401,736,8,1023.4,31.6,0
"2021-02-11 14:37:39+00",20.2,22.2,,31.2,437,780,-2,1023.52,31.5,0
"2021-02-11 14:42:39+00",17.0,19.0,,31.2,371,641,7,1023.43,31.5,0
"2021-02-11 14:47:39+00",20.9,22.9,,31.2,533,707,7,1023.36,31.5,0
"2021-02-11 14:52:39+00",17.1,20.1,,31.3,383,644,9,1023.41,31.6,0
"2021-02-11 14:57:39+00",19.4,21.4,,31.2,424,735,6,1023.49,31.6,0
"2021-02-11 15:02:39+00",17.5,21.5,,31.1,381,659,-9,1023.32,31.5,0
"2021-02-11 15:07:39+00",15.8,19.8,,31.1,387,569,8,1023.34,31.5,0
"2021-02-11 15:12:39+00",14.6,17.6,,31.2,307,568,15,1023.3,31.6,0
"2021-02-11 15:17:39+00",16.4,18.4,,31.2,341,632,6,1023.31,31.7,0
"2021-02-11 15:22:39+00",15.9,18.9,,31.1,354,577,13,1023.36,31.6,0
"2021-02-11 15:27:39+00",15.0,18.0,,31.1,305,588,4,1023.35,31.6,0
"2021-02-11 15:32:39+00",17.9,20.9,,31.1,394,669,-12,1023.11,31.7,0
"2021-02-11 15:37:39+00",17.5,20.5,,31.2,390,670,3,1023.39,31.8,0
"2021-02-11 15:42:39+00",16.9,19.9,,31.2,346,663,6,1023.46,31.8,0
"2021-02-11 15:47:39+00",15.6,17.6,,31.2,329,605,-6,1023.39,31.9,0
"2021-02-11 15:52:39+00",15.9,17.9,,31.2,385,579,3,1023.31,31.9,0
"2021-02-11 15:57:39+00",18.5,20.5,,31.1,425,684,-7,1023.26,32,0
"2021-02-11 16:02:39+00",16.0,19.0,,31.2,363,592,-3,1023.4,32,0
"2021-02-11 16:07:39+00",15.1,18.1,,31.1,315,605,-7,1023.44,32.1,0
"2021-02-11 16:12:39+00",13.8,18.8,,31.1,260,522,24,1023.56,32,0
"2021-02-11 16:17:39+00",15.8,18.8,,31.2,269,657,3,1023.52,32.1,0
"2021-02-11 16:22:39+00",19.3,22.3,,31.1,361,791,-14,1023.48,32.1,0
"2021-02-11 16:27:39+00",18.3,21.3,,31.2,323,764,4,1023.45,32.1,0
"2021-02-11 16:32:39+00",15.9,18.9,,31.2,263,659,-4,1023.49,32,0
"2021-02-11 16:37:39+00",17.1,21.1,,31.1,241,685,7,1023.51,31.9,0
"2021-02-11 16:42:39+00",17.1,20.1,,31.1,344,691,7,1023.46,31.9,0
"2021-02-11 16:47:39+00",16.0,19.0,,31,299,625,-2,1023.33,31.9,0
"2021-02-11 16:52:39+00",16.4,20.4,,31,196,685,-2,1023.23,31.9,0
"2021-02-11 16:57:39+00",17.3,20.3,,30.9,297,703,9,1023.31,31.8,0
"2021-02-11 17:02:39+00",14.6,18.6,,30.9,207,596,16,1023.22,31.8,0
"2021-02-11 17:07:39+00",19.2,21.2,,30.7,299,800,-7,1023.17,31.7,0
"2021-02-11 17:12:39+00",17.3,19.3,,30.6,336,707,-6,1023.03,31.6,0
"2021-02-11 17:17:39+00",16.5,19.5,,30.5,321,662,2,1023.16,31.6,0
"2021-02-11 17:22:39+00",16.3,19.3,,30.6,264,675,-4,1023.01,31.7,0
"2021-02-11 17:27:39+00",19.3,22.3,,30.4,368,809,-11,1022.89,31.6,0
"2021-02-11 17:32:39+00",16.7,21.7,,30.4,214,709,-6,1022.98,31.7,0
"2021-02-11 17:37:39+00",17.1,20.1,,30.3,353,685,8,1022.74,31.6,0
"2021-02-11 17:42:39+00",18.4,22.4,,30.2,333,741,3,1022.7,31.6,0
"2021-02-11 17:47:39+00",16.5,19.5,,30.1,324,664,-5,1022.64,31.6,0
"2021-02-11 17:52:39+00",15.3,17.3,,30.2,296,620,-5,1022.75,31.8,0
"2021-02-11 17:57:39+00",13.8,17.8,,30.3,192,583,-2,1022.92,31.9,0
"2021-02-11 18:02:39+00",12.4,14.4,,30.3,218,486,13,1022.82,31.9,0
"2021-02-11 18:07:39+00",13.4,16.4,,30.2,225,530,11,1022.87,31.9,0
"2021-02-11 18:12:39+00",17.1,20.1,,30,252,700,-16,1022.88,31.7,0
"2021-02-11 18:17:39+00",17.1,19.1,,30.1,323,685,-18,1022.81,31.6,0
"2021-02-11 18:22:39+00",17.3,19.3,,30,403,618,0,1022.83,31.6,0
"2021-02-11 18:27:39+00",16.9,19.9,,30,352,671,-9,1022.9,31.6,0
"2021-02-11 18:32:39+00",13.9,16.9,,30.1,176,578,6,1022.94,31.7,0
"2021-02-11 18:37:39+00",15.4,18.4,,30,239,651,5,1022.89,31.7,0
"2021-02-11 18:42:39+00",17.3,20.3,,30,371,659,-1,1022.77,31.7,0
"2021-02-11 18:47:39+00",18.2,20.2,,30.1,411,678,-1,1022.77,31.8,0
"2021-02-11 18:52:39+00",16.5,19.5,,30,269,674,-11,1022.87,31.7,0
"2021-02-11 18:57:39+00",13.8,15.8,,30,215,575,-1,1022.97,31.6,0
"2021-02-11 19:02:39+00",15.2,17.2,,29.9,291,615,-4,1023.04,31.7,0
"2021-02-11 19:07:39+00",14.3,18.3,,30,228,561,7,1023.12,31.7,0
"2021-02-11 19:12:39+00",12.4,14.4,,30.2,153,496,5,1023.07,31.9,0
"2021-02-11 19:17:39+00",11.9,13.9,,30.2,105,497,13,1023.06,32,0
"2021-02-11 19:22:39+00",14.6,16.6,,30.1,183,594,-26,1023.18,31.9,0
"2021-02-11 19:27:39+00",13.4,15.4,,30.2,180,551,-5,1023.26,31.7,0
"2021-02-11 19:32:39+00",15.2,17.2,,30.1,225,622,-10,1023.05,31.5,0
"2021-02-11 19:37:39+00",9.6,15.6,,30.3,167,390,23,1023.21,31.5,0
"2021-02-11 19:42:39+00",11.1,13.1,,30.3,99,454,19,1023.31,31.6,0
"2021-02-11 19:47:39+00",16.1,17.1,,30.1,169,666,-12,1023.2,31.5,0
"2021-02-11 19:52:39+00",15.9,17.9,,29.9,99,686,-6,1023.09,31.3,0
"2021-02-11 19:57:39+00",11.6,12.6,,29.9,91,489,24,1023.08,31.1,0
"2021-02-11 20:02:39+00",16.7,17.7,,29.9,192,671,-13,1022.95,31.1,0
"2021-02-11 20:07:39+00",14.0,16.0,,30,131,581,-2,1023.1,31.2,0
"2021-02-11 20:12:39+00",12.8,14.8,,30.1,136,520,-8,1023.11,31.1,0
"2021-02-11 20:17:39+00",14.3,18.3,,29.9,124,588,12,1023.18,31,0
"2021-02-11 20:22:39+00",14.7,17.7,,30,213,603,6,1023.34,31,0
"2021-02-11 20:27:39+00",15.6,17.6,,29.9,75,698,-1,1023.39,30.8,0
"2021-02-11 20:32:39+00",14.0,16.0,,29.8,94,603,1,1023.5,30.7,0
"2021-02-11 20:37:39+00",11.9,13.9,,29.9,91,501,-4,1023.57,30.8,0
"2021-02-11 20:42:39+00",12.1,15.1,,30,106,513,-1,1023.32,30.8,0
"2021-02-11 20:47:39+00",12.5,15.5,,30,197,501,-2,1023.4,30.8,0
"2021-02-11 20:52:39+00",11.2,14.2,,30,105,455,-8,1023.51,30.8,0
"2021-02-11 20:57:39+00",11.2,14.2,,30.1,156,463,-5,1023.66,30.7,0
"2021-02-11 21:02:39+00",12.4,14.4,,30.1,131,517,-9,1023.56,30.7,0
"2021-02-11 21:07:39+00",11.7,13.7,,30.1,94,498,-7,1023.69,30.6,0
"2021-02-11 21:12:39+00",11.8,13.8,,30.2,89,500,-2,1023.88,30.6,0
"2021-02-11 21:17:39+00",14.8,17.8,,30.2,147,601,-10,1023.85,30.6,0
"2021-02-11 21:22:39+00",13.4,16.4,,30,126,543,-6,1023.98,30.4,0
"2021-02-11 21:27:39+00",12.8,15.8,,29.9,81,540,11,1023.97,30.3,0
"2021-02-11 21:32:39+00",8.8,9.8,,30,53,361,2,1024.08,30.3,0
"2021-02-11 21:37:39+00",10.0,11.0,,29.9,34,441,8,1024.25,30.2,0
"2021-02-11 21:42:39+00",11.3,12.3,,29.8,62,496,2,1024.18,30.1,0
"2021-02-11 21:47:39+00",9.2,10.2,,29.8,89,374,-7,1024.26,30.1,0
"2021-02-11 21:52:39+00",7.5,8.5,,29.8,41,319,-8,1024.18,30,0
"2021-02-11 21:57:39+00",8.4,9.4,,29.8,20,356,4,1024.23,30,0
"2021-02-11 22:02:39+00",7.8,8.8,,29.8,-13,339,12,1024.47,30,0
"2021-02-11 22:07:39+00",8.8,9.8,,29.8,4,383,5,1024.18,30,0
"2021-02-11 22:12:39+00",7.1,8.1,,29.8,-46,321,21,1024.36,30,0
"2021-02-11 22:17:39+00",7.0,9.0,,29.8,-2,309,8,1024.44,30,0
"2021-02-11 22:22:39+00",6.0,7.0,,29.8,-42,249,11,1024.34,30,0
"2021-02-11 22:27:39+00",8.0,8.0,,29.7,-19,352,7,1024.53,29.9,0
"2021-02-11 22:32:39+00",8.9,9.9,,29.7,-15,391,4,1024.77,29.8,0
"2021-02-11 22:37:39+00",8.5,9.5,,29.8,-6,378,8,1024.85,29.8,0
"2021-02-11 22:42:39+00",9.4,10.4,,29.8,-33,421,3,1024.78,29.8,0
"2021-02-11 22:47:39+00",9.7,10.7,,29.8,13,417,6,1024.64,29.8,0
"2021-02-11 22:52:39+00",8.6,10.6,,29.8,29,373,7,1024.81,29.7,0
"2021-02-11 22:57:39+00",9.2,11.2,,29.8,-13,408,1,1024.85,29.7,0
"2021-02-11 23:02:39+00",7.2,10.2,,29.8,21,317,1,1024.84,29.7,0
"2021-02-11 23:07:39+00",8.0,9.0,,29.8,-18,360,9,1025.01,29.7,0
"2021-02-11 23:12:39+00",8.1,10.1,,29.9,50,338,-7,1024.96,29.7,0
"2021-02-11 23:17:39+00",8.3,9.3,,29.8,5,363,7,1025.16,29.6,0
"2021-02-11 23:22:39+00",7.9,8.9,,29.8,18,345,10,1025.27,29.5,0
"2021-02-11 23:27:39+00",8.8,10.8,,29.8,73,374,-12,1025.33,29.5,0
"2021-02-11 23:32:39+00",8.6,10.6,,29.8,42,361,9,1025.42,29.5,0
"2021-02-11 23:37:39+00",7.5,8.5,,29.8,36,313,4,1025.54,29.4,0
"2021-02-11 23:42:39+00",8.3,9.3,,29.8,-50,358,-4,1025.61,29.4,0
"2021-02-11 23:47:39+00",6.7,7.7,,29.8,-53,283,13,1025.56,29.4,0
"2021-02-11 23:52:39+00",7.4,8.4,,29.8,-41,322,17,1025.54,29.4,0
"2021-02-11 23:57:39+00",6.3,7.3,,29.8,-45,272,0,1025.64,29.4,0
